,,Stat1,,Stat2,,Stat3,,Stat4,,Wind1,,Wind1,
time,status,PR1M_SUM,status,RH1M_AVG,status,SR1M_AVG,status,TA1M_AVG,status,W1dAve1m,status,W1sAve1m,
1999-11-06, 00:01:00,VALID,0,VALID,100,VALID,-0.0849042,VALID,19.0498,VALID,329,VALID,0.261924,
1999-11-06, 00:02:00,VALID,0,VALID,100,VALID,-0.101885,VALID,19.0369,VALID,325,VALID,0.109992,
1999-11-06, 00:03:00,VALID,0,VALID,100,VALID,-0.0679233,VALID,19.0371,VALID,284,VALID,0.140419,
1999-11-06, 00:04:00,VALID,0,VALID,100,VALID,-0.0679233,VALID,19.0401,VALID,266,VALID,0.136502,
1999-11-06, 00:05:00,VALID,0,VALID,100,VALID,-0.0679233,VALID,19.0401,VALID,266,VALID,0.00325521,
1999-11-06, 00:06:00,VALID,0,VALID,100,VALID,-0.0509425,VALID,19.0205,VALID,266,VALID,0,
1999-11-06, 00:07:00,VALID,0,VALID,100,VALID,-0.0679233,VALID,19.0339,VALID,269,VALID,0,
1999-11-06, 00:08:00,VALID,0,VALID,100,VALID,-0.0679233,VALID,19.0374,VALID,274,VALID,0,
1999-11-06, 00:09:00,VALID,0,VALID,100,VALID,-0.0679233,VALID,19.0401,VALID,221,VALID,0.0646701,
1999-11-06, 00:10:01,VALID,0,VALID,100,VALID,-0.0169808,VALID,19.0558,VALID,121,VALID,0.597545,
1999-11-06, 00:11:00,VALID,0,VALID,100,VALID,0.0339617,VALID,19.0747,VALID,92,VALID,0.526442,
1999-11-06, 00:12:00,VALID,0,VALID,100,VALID,0.0339617,VALID,19.0742,VALID,84,VALID,0.127679,
1999-11-06, 00:13:00,VALID,0,VALID,100,VALID,0.0509425,VALID,19.0611,VALID,114,VALID,0.147352,
1999-11-06, 00:14:00,VALID,0,VALID,100,VALID,0.0509425,VALID,19.0611,VALID,102,VALID,0.969643,
1999-11-06, 00:15:00,VALID,0,VALID,100,VALID,0.0509425,VALID,19.0678,VALID,99,VALID,0.555288,
1999-11-06, 00:16:00,VALID,0,VALID,100,VALID,0.0509425,VALID,19.08,VALID,110,VALID,0.139286,
1999-11-06, 00:17:00,VALID,0,VALID,100,VALID,0.0169808,VALID,19.0738,VALID,126,VALID,0.722222,
1999-11-06, 00:18:00,VALID,0,VALID,100,VALID,0.0339617,VALID,19.074,VALID,75,VALID,0.322098,
1999-11-06, 00:19:00,VALID,0,VALID,100,VALID,0.0339617,VALID,19.0638,VALID,80,VALID,0.369591,
1999-11-06, 00:20:00,VALID,0,VALID,100,VALID,0.0339617,VALID,19.0546,VALID,87,VALID,0.0484375,
1999-11-06, 00:21:01,VALID,0,VALID,100,VALID,0.0509425,VALID,19.0641,VALID,106,VALID,0.342014,
1999-11-06, 00:22:00,VALID,0,VALID,100,VALID,0.0679233,VALID,19.0735,VALID,97,VALID,1.35424,
1999-11-06, 00:23:00,VALID,0,VALID,100,VALID,0.0679233,VALID,19.0867,VALID,93,VALID,0.703726,
1999-11-06, 00:24:00,VALID,0,VALID,100,VALID,0.0679233,VALID,19.0964,VALID,116,VALID,0.179464,
1999-11-06, 00:25:00,VALID,0,VALID,100,VALID,0.0169808,VALID,19.1068,VALID,106,VALID,0.781033,
1999-11-06, 00:26:00,VALID,0,VALID,100,VALID,-0.0679233,VALID,19.0948,VALID,100,VALID,1.03482,
1999-11-06, 00:27:00,VALID,0,VALID,100,VALID,-0.0339617,VALID,19.0881,VALID,102,VALID,1.08754,
1999-11-06, 00:28:00,VALID,0,VALID,100,VALID,-0.0169808,VALID,19.0948,VALID,86,VALID,1.19978,
1999-11-06, 00:29:00,VALID,0,VALID,100,VALID,-0.0169808,VALID,19.105,VALID,91,VALID,0.875868,
1999-11-06, 00:30:00,VALID,0,VALID,100,VALID,0,VALID,19.0782,VALID,97,VALID,0.955134,
1999-11-06, 00:31:00,VALID,0,VALID,100,VALID,0,VALID,19.0747,VALID,86,VALID,1.57292,
1999-11-06, 00:32:00,VALID,0,VALID,100,VALID,0,VALID,19.0685,VALID,97,VALID,1.59353,
1999-11-06, 00:33:00,VALID,0,VALID,100,VALID,0,VALID,19.0717,VALID,88,VALID,0.590278,
1999-11-06, 00:34:00,VALID,0,VALID,100,VALID,0,VALID,19.0819,VALID,263,VALID,0.104687,
1999-11-06, 00:35:00,VALID,0,VALID,100,VALID,-0.0169808,VALID,19.069,VALID,153,VALID,0.313101,
1999-11-06, 00:36:00,VALID,0,VALID,100,VALID,-0.0169808,VALID,19.0593,VALID,110,VALID,0.736607,
1999-11-06, 00:37:00,VALID,0,VALID,100,VALID,-0.0679233,VALID,19.069,VALID,78,VALID,0.797526,
1999-11-06, 00:38:00,VALID,0,VALID,100,VALID,-0.0679233,VALID,19.0757,VALID,80,VALID,0.158259,
1999-11-06, 00:39:00,VALID,0,VALID,100,VALID,-0.0169808,VALID,19.0789,VALID,104,VALID,1.01923,
1999-11-06, 00:40:00,VALID,0,VALID,100,VALID,-0.0339617,VALID,19.0817,VALID,77,VALID,1.25134,
1999-11-06, 00:41:00,VALID,0,VALID,100,VALID,-0.0169808,VALID,19.0556,VALID,95,VALID,1.36523,
1999-11-06, 00:42:00,VALID,0,VALID,100,VALID,-0.0169808,VALID,19.0586,VALID,94,VALID,1.75804,
1999-11-06, 00:43:00,VALID,0,VALID,100,VALID,-0.0339617,VALID,19.0717,VALID,93,VALID,1.51803,
1999-11-06, 00:44:00,VALID,0,VALID,100,VALID,-0.0339617,VALID,19.0787,VALID,94,VALID,1.09018,
1999-11-06, 00:45:00,VALID,0.2,VALID,100,VALID,-0.0509425,VALID,19.0657,VALID,58,VALID,0.419488,
1999-11-06, 00:46:00,VALID,0,VALID,100,VALID,0,VALID,19.0593,VALID,18,VALID,0.625446,
1999-11-06, 00:47:00,VALID,0,VALID,100,VALID,-0.0509425,VALID,19.0595,VALID,47,VALID,0.679888,
1999-11-06, 00:48:00,VALID,0,VALID,100,VALID,-0.0679233,VALID,19.059,VALID,233,VALID,0.52567,
1999-11-06, 00:49:00,VALID,0,VALID,100,VALID,-0.0339617,VALID,19.059,VALID,91,VALID,1.24588,
1999-11-06, 00:50:00,VALID,0,VALID,100,VALID,-0.0679233,VALID,19.072,VALID,84,VALID,1.22679,
1999-11-06, 00:51:00,VALID,0,VALID,100,VALID,0,VALID,19.0717,VALID,290,VALID,0.389623,
1999-11-06, 00:52:00,VALID,0,VALID,100,VALID,-0.0679233,VALID,19.0729,VALID,117,VALID,0.991964,
1999-11-06, 00:53:00,VALID,0,VALID,100,VALID,-0.0169808,VALID,19.0586,VALID,354,VALID,0.89605,
1999-11-06, 00:54:00,VALID,0,VALID,100,VALID,-0.0169808,VALID,19.0523,VALID,225,VALID,0.409152,
1999-11-06, 00:55:00,VALID,0,VALID,100,VALID,-0.0509425,VALID,19.0456,VALID,164,VALID,0.11278,
1999-11-06, 00:56:00,VALID,0,VALID,100,VALID,-0.0169808,VALID,19.059,VALID,192,VALID,0.53125,
1999-11-06, 00:57:00,VALID,0,VALID,100,VALID,0,VALID,19.069,VALID,154,VALID,0.473741,
1999-11-06, 00:58:00,VALID,0,VALID,100,VALID,-0.0339617,VALID,19.0493,VALID,269,VALID,0.442634,
1999-11-06, 00:59:00,VALID,0,VALID,100,VALID,-0.0169808,VALID,19.0625,VALID,109,VALID,1.10917,
1999-11-06, 01:00:00,VALID,0,VALID,100,VALID,0,VALID,19.0556,VALID,37,VALID,1.23281,
1999-11-06, 01:01:00,VALID,0,VALID,100,VALID,0,VALID,19.0588,VALID,95,VALID,1.75608,
1999-11-06, 01:02:00,VALID,0,VALID,100,VALID,0,VALID,19.0583,VALID,64,VALID,0.746205,
1999-11-06, 01:03:00,VALID,0,VALID,100,VALID,-0.0509425,VALID,19.0493,VALID,320,VALID,0.50601,
1999-11-06, 01:04:00,VALID,0,VALID,100,VALID,0,VALID,19.0558,VALID,100,VALID,0.99375,
1999-11-06, 01:05:00,VALID,0,VALID,100,VALID,-0.0169808,VALID,19.0618,VALID,102,VALID,1.45226,
1999-11-06, 01:06:00,VALID,0,VALID,100,VALID,-0.0339617,VALID,19.0754,VALID,94,VALID,1.10982,
1999-11-06, 01:07:00,VALID,0,VALID,100,VALID,-0.0169808,VALID,19.0521,VALID,94,VALID,2.00381,
1999-11-06, 01:08:00,VALID,0,VALID,100,VALID,-0.0339617,VALID,19.0526,VALID,145,VALID,1.61518,
1999-11-06, 01:09:00,VALID,0,VALID,100,VALID,-0.0169808,VALID,19.0593,VALID,120,VALID,1.03342,
1999-11-06, 01:10:00,VALID,0,VALID,100,VALID,-0.0169808,VALID,19.0459,VALID,94,VALID,1.15737,
1999-11-06, 01:11:00,VALID,0,VALID,100,VALID,0,VALID,19.0396,VALID,18,VALID,0.533253,
1999-11-06, 01:12:00,VALID,0,VALID,100,VALID,-0.0339617,VALID,19.0362,VALID,69,VALID,0.837723,
1999-11-06, 01:13:00,VALID,0,VALID,100,VALID,-0.0169808,VALID,19.023,VALID,82,VALID,1.31359,
1999-11-06, 01:14:00,VALID,0,VALID,100,VALID,-0.0169808,VALID,19.0401,VALID,100,VALID,0.801562,
1999-11-06, 01:15:00,VALID,0,VALID,100,VALID,-0.0339617,VALID,19.0267,VALID,88,VALID,1.02404,
1999-11-06, 01:16:00,VALID,0,VALID,100,VALID,-0.0509425,VALID,19.0399,VALID,99,VALID,0.936607,
1999-11-06, 01:17:00,VALID,0,VALID,100,VALID,-0.0509425,VALID,19.0434,VALID,94,VALID,0.763238,
1999-11-06, 01:18:00,VALID,0,VALID,100,VALID,-0.0509425,VALID,19.0496,VALID,86,VALID,1.21295,
1999-11-06, 01:19:00,VALID,0,VALID,100,VALID,-0.0849042,VALID,19.0501,VALID,99,VALID,0.904046,
1999-11-06, 01:20:00,VALID,0,VALID,100,VALID,-0.0339617,VALID,19.0531,VALID,51,VALID,0.628795,
1999-11-06, 01:21:00,VALID,0,VALID,100,VALID,-0.0679233,VALID,19.0496,VALID,114,VALID,0.386502,
1999-11-06, 01:22:00,VALID,0,VALID,100,VALID,-0.0509425,VALID,19.0593,VALID,105,VALID,0.624107,
1999-11-06, 01:23:00,VALID,0,VALID,100,VALID,-0.0339617,VALID,19.0523,VALID,81,VALID,0.596955,
1999-11-06, 01:24:00,VALID,0.2,VALID,100,VALID,-0.0339617,VALID,19.0657,VALID,125,VALID,0.751116,
1999-11-06, 01:25:00,VALID,0,VALID,100,VALID,-0.0169808,VALID,19.0496,VALID,112,VALID,0.486328,
1999-11-06, 01:26:00,VALID,0,VALID,100,VALID,-0.0509425,VALID,19.0556,VALID,359,VALID,0.239286,
1999-11-06, 01:27:00,VALID,0,VALID,100,VALID,-0.0339617,VALID,19.0627,VALID,254,VALID,0,
1999-11-06, 01:28:00,VALID,0,VALID,100,VALID,-0.0339617,VALID,19.0593,VALID,51,VALID,0.321398,
1999-11-06, 01:29:00,VALID,0,VALID,100,VALID,-0.0339617,VALID,19.059,VALID,35,VALID,0.152561,
1999-11-06, 01:30:00,VALID,0,VALID,100,VALID,-0.0679233,VALID,19.0687,VALID,14,VALID,0.168527,
1999-11-06, 01:31:00,VALID,0,VALID,100,VALID,-0.0339617,VALID,19.0717,VALID,166,VALID,0.513421,
1999-11-06, 01:32:00,VALID,0,VALID,100,VALID,-0.0339617,VALID,19.072,VALID,67,VALID,0.680357,
1999-11-06, 01:33:00,VALID,0,VALID,100,VALID,-0.0169808,VALID,19.0655,VALID,218,VALID,0.268446,
1999-11-06, 01:34:00,VALID,0,VALID,100,VALID,-0.0339617,VALID,19.0625,VALID,106,VALID,1.17277,
1999-11-06, 01:35:00,VALID,0,VALID,100,VALID,-0.0339617,VALID,19.066,VALID,141,VALID,0.318309,
1999-11-06, 01:36:00,VALID,0,VALID,100,VALID,-0.0339617,VALID,19.0951,VALID,103,VALID,0.704687,
1999-11-06, 01:37:00,VALID,0,VALID,100,VALID,-0.0339617,VALID,19.0817,VALID,298,VALID,0.676866,
1999-11-06, 01:38:00,VALID,0,VALID,100,VALID,0,VALID,19.062,VALID,5,VALID,1.03237,
1999-11-06, 01:39:00,VALID,0,VALID,100,VALID,-0.0509425,VALID,19.063,VALID,228,VALID,0.442708,
1999-11-06, 01:40:00,VALID,0,VALID,100,VALID,-0.0509425,VALID,19.0687,VALID,102,VALID,0.76317,
1999-11-06, 01:41:00,VALID,0,VALID,100,VALID,0,VALID,19.0784,VALID,98,VALID,0.586155,
1999-11-06, 01:42:00,VALID,0,VALID,100,VALID,0,VALID,19.075,VALID,112,VALID,0.966071,
1999-11-06, 01:43:00,VALID,0,VALID,100,VALID,-0.0339617,VALID,19.1015,VALID,116,VALID,0.374599,
1999-11-06, 01:44:00,VALID,0,VALID,100,VALID,-0.0339617,VALID,19.0877,VALID,176,VALID,0.277679,
1999-11-06, 01:45:00,VALID,0,VALID,100,VALID,-0.0169808,VALID,19.0944,VALID,101,VALID,0.305122,
1999-11-06, 01:46:00,VALID,0,VALID,100,VALID,-0.0339617,VALID,19.0879,VALID,175,VALID,0.369643,
1999-11-06, 01:47:00,VALID,0,VALID,100,VALID,0,VALID,19.0879,VALID,210,VALID,0.53766,
1999-11-06, 01:48:00,VALID,0,VALID,100,VALID,-0.0509425,VALID,19.0881,VALID,107,VALID,0.583482,
1999-11-06, 01:49:00,VALID,0,VALID,100,VALID,-0.0509425,VALID,19.0717,VALID,80,VALID,0.196398,
1999-11-06, 01:50:00,VALID,0,VALID,100,VALID,-0.0339617,VALID,19.0787,VALID,105,VALID,0.254687,
1999-11-06, 01:51:00,VALID,0,VALID,100,VALID,0,VALID,19.0849,VALID,201,VALID,0.115184,
1999-11-06, 01:52:00,VALID,0,VALID,100,VALID,-0.0169808,VALID,19.0881,VALID,206,VALID,0.1125,
1999-11-06, 01:53:00,VALID,0,VALID,100,VALID,-0.0169808,VALID,19.0849,VALID,124,VALID,0,
1999-11-06, 01:54:00,VALID,0,VALID,100,VALID,0,VALID,19.075,VALID,131,VALID,0,
1999-11-06, 01:55:00,VALID,0,VALID,100,VALID,-0.0169808,VALID,19.0918,VALID,125,VALID,0,
1999-11-06, 01:56:00,VALID,0,VALID,100,VALID,-0.0509425,VALID,19.075,VALID,357,VALID,0,
1999-11-06, 01:57:00,VALID,0,VALID,100,VALID,0,VALID,19.0784,VALID,142,VALID,0.611979,
1999-11-06, 01:58:00,VALID,0.2,VALID,100,VALID,0,VALID,19.0787,VALID,186,VALID,0.114286,
1999-11-06, 01:59:00,VALID,0,VALID,100,VALID,0,VALID,19.0687,VALID,217,VALID,0.389623,
1999-11-06, 02:00:00,VALID,0,VALID,100,VALID,-0.0169808,VALID,19.0782,VALID,216,VALID,0.308259,
1999-11-06, 02:01:00,VALID,0,VALID,100,VALID,-0.0169808,VALID,19.0722,VALID,195,VALID,0.23546,
1999-11-06, 02:02:00,VALID,0,VALID,100,VALID,-0.0169808,VALID,19.0893,VALID,215,VALID,0.195313,
1999-11-06, 02:03:00,VALID,0,VALID,100,VALID,-0.0169808,VALID,19.0819,VALID,255,VALID,0,
1999-11-06, 02:04:00,VALID,0,VALID,100,VALID,0,VALID,19.0948,VALID,191,VALID,0,
1999-11-06, 02:05:00,VALID,0.2,VALID,100,VALID,-0.0339617,VALID,19.0916,VALID,161,VALID,0.388455,
1999-11-06, 02:06:00,VALID,0,VALID,100,VALID,-0.0169808,VALID,19.0884,VALID,30,VALID,1.40692,
1999-11-06, 02:07:00,VALID,0,VALID,100,VALID,-0.0169808,VALID,19.1075,VALID,107,VALID,1.22877,
1999-11-06, 02:08:00,VALID,0,VALID,100,VALID,-0.0169808,VALID,19.1038,VALID,135,VALID,0.452679,
1999-11-06, 02:09:00,VALID,0,VALID,100,VALID,-0.0339617,VALID,19.117,VALID,265,VALID,0.437283,
1999-11-06, 02:10:01,VALID,0,VALID,100,VALID,-0.0339617,VALID,19.1172,VALID,231,VALID,0.149107,
1999-11-06, 02:11:00,VALID,0,VALID,100,VALID,0,VALID,19.1371,VALID,118,VALID,1.11498,
1999-11-06, 02:12:00,VALID,0,VALID,100,VALID,-0.0339617,VALID,19.1299,VALID,155,VALID,0.409821,
1999-11-06, 02:13:00,VALID,0,VALID,100,VALID,-0.0169808,VALID,19.1235,VALID,165,VALID,0.476997,
1999-11-06, 02:14:00,VALID,0,VALID,100,VALID,0,VALID,19.1237,VALID,259,VALID,0.209598,
1999-11-06, 02:15:00,VALID,0.2,VALID,100,VALID,0,VALID,19.1172,VALID,227,VALID,0.383413,
1999-11-06, 02:16:00,VALID,0,VALID,100,VALID,-0.0509425,VALID,19.1207,VALID,155,VALID,0.188839,
1999-11-06, 02:17:00,VALID,0,VALID,100,VALID,-0.0339617,VALID,19.1336,VALID,139,VALID,0.551215,
1999-11-06, 02:18:00,VALID,0,VALID,100,VALID,-0.0509425,VALID,19.1309,VALID,131,VALID,0.227679,
1999-11-06, 02:19:00,VALID,0,VALID,100,VALID,-0.0509425,VALID,19.1334,VALID,229,VALID,0.225962,
1999-11-06, 02:20:00,VALID,0,VALID,100,VALID,-0.0169808,VALID,19.1364,VALID,111,VALID,0.913616,
1999-11-06, 02:21:00,VALID,0,VALID,100,VALID,0,VALID,19.1433,VALID,225,VALID,0.289714,
1999-11-06, 02:22:00,VALID,0,VALID,100,VALID,-0.0169808,VALID,19.1396,VALID,227,VALID,0.907366,
1999-11-06, 02:23:00,VALID,0,VALID,100,VALID,-0.0169808,VALID,19.1431,VALID,169,VALID,0.985577,
1999-11-06, 02:24:00,VALID,0,VALID,100,VALID,0,VALID,19.1399,VALID,118,VALID,1.14732,
1999-11-06, 02:25:00,VALID,0.2,VALID,100,VALID,0,VALID,19.1304,VALID,116,VALID,1.08594,
1999-11-06, 02:26:00,VALID,0,VALID,100,VALID,-0.0339617,VALID,19.1334,VALID,225,VALID,0.371429,
1999-11-06, 02:27:00,VALID,0,VALID,100,VALID,-0.0169808,VALID,19.1463,VALID,133,VALID,0.791466,
1999-11-06, 02:28:00,VALID,0.2,VALID,100,VALID,0,VALID,19.1399,VALID,226,VALID,0.379464,
1999-11-06, 02:29:00,VALID,0,VALID,100,VALID,0,VALID,19.1431,VALID,222,VALID,0.496745,
1999-11-06, 02:30:00,VALID,0,VALID,100,VALID,0,VALID,19.1396,VALID,137,VALID,0.165179,
1999-11-06, 02:31:00,VALID,0,VALID,100,VALID,0,VALID,19.1535,VALID,175,VALID,0.844952,
1999-11-06, 02:32:00,VALID,0,VALID,100,VALID,0,VALID,19.1396,VALID,192,VALID,0.96808,
1999-11-06, 02:33:00,VALID,0,VALID,100,VALID,-0.0339617,VALID,19.1329,VALID,147,VALID,1.14323,
1999-11-06, 02:34:00,VALID,0,VALID,100,VALID,0,VALID,19.159,VALID,98,VALID,1.89598,
1999-11-06, 02:35:00,VALID,0,VALID,100,VALID,-0.0169808,VALID,19.1528,VALID,110,VALID,2.21575,
1999-11-06, 02:36:00,VALID,0,VALID,100,VALID,-0.0169808,VALID,19.1555,VALID,173,VALID,0.902679,
1999-11-06, 02:37:00,VALID,0,VALID,100,VALID,-0.0169808,VALID,19.1722,VALID,216,VALID,0.688802,
1999-11-06, 02:38:00,VALID,0,VALID,100,VALID,0,VALID,19.1791,VALID,249,VALID,0.803125,
1999-11-06, 02:39:00,VALID,0,VALID,100,VALID,0,VALID,19.1754,VALID,89,VALID,0.71234,
1999-11-06, 02:40:00,VALID,0,VALID,100,VALID,-0.0509425,VALID,19.1664,VALID,324,VALID,1.36518,
1999-11-06, 02:41:00,VALID,0,VALID,100,VALID,-0.0509425,VALID,19.1463,VALID,62,VALID,1.42209,
1999-11-06, 02:42:00,VALID,0,VALID,100,VALID,-0.0679233,VALID,19.1563,VALID,92,VALID,1.86942,
1999-11-06, 02:43:01,VALID,0,VALID,100,VALID,-0.0509425,VALID,19.1595,VALID,16,VALID,0.983574,
1999-11-06, 02:44:00,VALID,0,VALID,100,VALID,-0.0169808,VALID,19.16,VALID,197,VALID,1.25,
1999-11-06, 02:45:00,VALID,0,VALID,100,VALID,-0.0169808,VALID,19.1625,VALID,117,VALID,0.925781,
1999-11-06, 02:46:00,VALID,0,VALID,100,VALID,-0.0169808,VALID,19.169,VALID,128,VALID,0.765179,
1999-11-06, 02:47:00,VALID,0,VALID,100,VALID,-0.0509425,VALID,19.1719,VALID,167,VALID,0.611579,
1999-11-06, 02:48:00,VALID,0,VALID,100,VALID,-0.0509425,VALID,19.1694,VALID,293,VALID,1.36071,
1999-11-06, 02:49:00,VALID,0,VALID,100,VALID,-0.0679233,VALID,19.1667,VALID,304,VALID,0.862847,
1999-11-06, 02:50:00,VALID,0,VALID,100,VALID,-0.101885,VALID,19.1667,VALID,350,VALID,0.466071,
1999-11-06, 02:51:00,VALID,0,VALID,100,VALID,-0.0849042,VALID,19.1694,VALID,323,VALID,0.698718,
1999-11-06, 02:52:00,VALID,0,VALID,100,VALID,-0.0679233,VALID,19.1759,VALID,250,VALID,0.569196,
1999-11-06, 02:53:00,VALID,0,VALID,100,VALID,-0.0509425,VALID,19.1787,VALID,88,VALID,0.11046,
1999-11-06, 02:54:01,VALID,0,VALID,100,VALID,-0.0849042,VALID,19.2022,VALID,100,VALID,1.09687,
1999-11-06, 02:55:00,VALID,0,VALID,100,VALID,-0.0509425,VALID,19.1881,VALID,83,VALID,1.26522,
1999-11-06, 02:56:00,VALID,0,VALID,100,VALID,-0.0339617,VALID,19.1983,VALID,276,VALID,1.18817,
1999-11-06, 02:57:00,VALID,0,VALID,100,VALID,-0.0509425,VALID,19.1687,VALID,306,VALID,0.49349,
1999-11-06, 02:58:00,VALID,0,VALID,100,VALID,-0.0169808,VALID,19.198,VALID,85,VALID,0.639732,
1999-11-06, 02:59:00,VALID,0,VALID,100,VALID,-0.0339617,VALID,19.1784,VALID,195,VALID,0.704928,
1999-11-06, 03:00:00,VALID,0,VALID,100,VALID,-0.0169808,VALID,19.1757,VALID,169,VALID,0.738839,
1999-11-06, 03:01:00,VALID,0,VALID,100,VALID,-0.0339617,VALID,19.1854,VALID,88,VALID,1.29644,
1999-11-06, 03:02:00,VALID,0,VALID,100,VALID,-0.0679233,VALID,19.1816,VALID,14,VALID,1.34487,
1999-11-06, 03:03:00,VALID,0,VALID,100,VALID,-0.0339617,VALID,19.1851,VALID,357,VALID,0.827925,
1999-11-06, 03:04:00,VALID,0,VALID,100,VALID,-0.0509425,VALID,19.1953,VALID,133,VALID,1.03259,
1999-11-06, 03:05:01,VALID,0,VALID,100,VALID,-0.0169808,VALID,19.1978,VALID,93,VALID,1.11393,
1999-11-06, 03:06:00,VALID,0,VALID,100,VALID,0,VALID,19.1951,VALID,33,VALID,0.128348,
1999-11-06, 03:07:00,VALID,0,VALID,100,VALID,-0.0339617,VALID,19.2048,VALID,65,VALID,0.777845,
1999-11-06, 03:08:00,VALID,0,VALID,100,VALID,-0.0339617,VALID,19.2015,VALID,133,VALID,0.481696,
1999-11-06, 03:09:00,VALID,0,VALID,100,VALID,-0.0509425,VALID,19.2048,VALID,12,VALID,1.6569,
1999-11-06, 03:10:00,VALID,0,VALID,100,VALID,0.0169808,VALID,19.2172,VALID,101,VALID,1.0096,
1999-11-06, 03:11:00,VALID,0,VALID,100,VALID,0.0509425,VALID,19.2125,VALID,12,VALID,1.07652,
1999-11-06, 03:12:00,VALID,0,VALID,100,VALID,0.0509425,VALID,19.2292,VALID,49,VALID,1.32679,
1999-11-06, 03:13:00,VALID,0,VALID,100,VALID,0.0679233,VALID,19.2229,VALID,63,VALID,1.18728,
1999-11-06, 03:14:00,VALID,0,VALID,100,VALID,0.0169808,VALID,19.2257,VALID,352,VALID,0.914955,
1999-11-06, 03:15:00,VALID,0,VALID,100,VALID,0.0509425,VALID,19.2299,VALID,306,VALID,1.25661,
1999-11-06, 03:16:01,VALID,0,VALID,100,VALID,0.0169808,VALID,19.2294,VALID,329,VALID,0.861161,
1999-11-06, 03:17:00,VALID,0,VALID,100,VALID,0.0169808,VALID,19.2326,VALID,232,VALID,0.416233,
1999-11-06, 03:18:00,VALID,0,VALID,100,VALID,0.0679233,VALID,19.2453,VALID,104,VALID,0.885045,
1999-11-06, 03:19:00,VALID,0,VALID,100,VALID,0.0339617,VALID,19.2483,VALID,131,VALID,0.74359,
1999-11-06, 03:20:00,VALID,0,VALID,100,VALID,0.101885,VALID,19.2516,VALID,165,VALID,1.39732,
1999-11-06, 03:21:00,VALID,0,VALID,100,VALID,0.0339617,VALID,19.2712,VALID,107,VALID,1.39909,
1999-11-06, 03:22:00,VALID,0,VALID,100,VALID,0.0509425,VALID,19.265,VALID,10,VALID,1.34196,
1999-11-06, 03:23:00,VALID,0,VALID,100,VALID,0,VALID,19.2456,VALID,359,VALID,1.13722,
1999-11-06, 03:24:00,VALID,0,VALID,100,VALID,0.0679233,VALID,19.2486,VALID,79,VALID,0.883929,
1999-11-06, 03:25:00,VALID,0,VALID,100,VALID,-0.0339617,VALID,19.2625,VALID,122,VALID,0.717882,
1999-11-06, 03:26:00,VALID,0,VALID,100,VALID,-0.0679233,VALID,19.2597,VALID,15,VALID,0.562054,
1999-11-06, 03:27:01,VALID,0,VALID,100,VALID,-0.101885,VALID,19.2694,VALID,57,VALID,0.294671,
1999-11-06, 03:28:00,VALID,0,VALID,100,VALID,-0.0849042,VALID,19.2727,VALID,187,VALID,0.172545,
1999-11-06, 03:29:00,VALID,0,VALID,100,VALID,-0.101885,VALID,19.263,VALID,181,VALID,0.41862,
1999-11-06, 03:30:00,VALID,0,VALID,100,VALID,-0.101885,VALID,19.2634,VALID,42,VALID,1.31518,
1999-11-06, 03:31:00,VALID,0,VALID,100,VALID,-0.101885,VALID,19.2438,VALID,336,VALID,1.92869,
1999-11-06, 03:32:00,VALID,0,VALID,100,VALID,-0.0849042,VALID,19.2309,VALID,50,VALID,0.827902,
1999-11-06, 03:33:00,VALID,0,VALID,100,VALID,-0.0849042,VALID,19.2433,VALID,333,VALID,0.326606,
1999-11-06, 03:34:00,VALID,0,VALID,100,VALID,-0.0679233,VALID,19.257,VALID,96,VALID,0.332812,
1999-11-06, 03:35:00,VALID,0,VALID,100,VALID,-0.0509425,VALID,19.2433,VALID,142,VALID,0.254607,
1999-11-06, 03:36:00,VALID,0,VALID,100,VALID,-0.0849042,VALID,19.2503,VALID,128,VALID,0.809598,
1999-11-06, 03:37:00,VALID,0,VALID,100,VALID,-0.0509425,VALID,19.2533,VALID,22,VALID,0.625651,
1999-11-06, 03:38:00,VALID,0,VALID,100,VALID,-0.0679233,VALID,19.2438,VALID,30,VALID,0.655804,
1999-11-06, 03:39:00,VALID,0,VALID,100,VALID,-0.0679233,VALID,19.2602,VALID,103,VALID,1.47596,
1999-11-06, 03:40:00,VALID,0,VALID,100,VALID,-0.0679233,VALID,19.2664,VALID,59,VALID,0.613839,
1999-11-06, 03:41:00,VALID,0,VALID,100,VALID,0,VALID,19.2724,VALID,171,VALID,0.434028,
1999-11-06, 03:42:00,VALID,0,VALID,100,VALID,-0.0509425,VALID,19.2625,VALID,221,VALID,0.764732,
1999-11-06, 03:43:00,VALID,0,VALID,100,VALID,-0.0339617,VALID,19.2562,VALID,293,VALID,0.842348,
1999-11-06, 03:44:00,VALID,0,VALID,100,VALID,-0.0339617,VALID,19.2428,VALID,111,VALID,1.2567,
1999-11-06, 03:45:00,VALID,0,VALID,100,VALID,-0.0339617,VALID,19.2729,VALID,73,VALID,0.478299,
1999-11-06, 03:46:00,VALID,0,VALID,100,VALID,-0.0169808,VALID,19.2562,VALID,190,VALID,0.8875,
1999-11-06, 03:47:00,VALID,0,VALID,100,VALID,-0.0169808,VALID,19.2729,VALID,144,VALID,0.891026,
1999-11-06, 03:48:00,VALID,0,VALID,100,VALID,-0.0169808,VALID,19.2659,VALID,40,VALID,1.26518,
1999-11-06, 03:49:00,VALID,0,VALID,100,VALID,-0.0339617,VALID,19.2595,VALID,338,VALID,1.93555,
1999-11-06, 03:50:00,VALID,0,VALID,100,VALID,-0.0169808,VALID,19.2694,VALID,319,VALID,0.975893,
1999-11-06, 03:51:00,VALID,0,VALID,100,VALID,-0.0509425,VALID,19.263,VALID,271,VALID,0.609575,
1999-11-06, 03:52:00,VALID,0,VALID,100,VALID,-0.0509425,VALID,19.2634,VALID,165,VALID,1.22701,
1999-11-06, 03:53:00,VALID,0,VALID,100,VALID,-0.0169808,VALID,19.2533,VALID,79,VALID,0.998915,
1999-11-06, 03:54:00,VALID,0,VALID,100,VALID,-0.0509425,VALID,19.2533,VALID,229,VALID,1.15067,
1999-11-06, 03:55:00,VALID,0,VALID,100,VALID,-0.0509425,VALID,19.2597,VALID,101,VALID,1.16306,
1999-11-06, 03:56:00,VALID,0,VALID,100,VALID,-0.0509425,VALID,19.2431,VALID,286,VALID,1.27924,
1999-11-06, 03:57:00,VALID,0,VALID,100,VALID,-0.0169808,VALID,19.2436,VALID,72,VALID,1.44206,
1999-11-06, 03:58:00,VALID,0,VALID,100,VALID,-0.0509425,VALID,19.2567,VALID,66,VALID,0.98817,
1999-11-06, 03:59:00,VALID,0,VALID,100,VALID,-0.0509425,VALID,19.2537,VALID,123,VALID,1.0595,
1999-11-06, 04:00:00,VALID,0,VALID,100,VALID,-0.0509425,VALID,19.2436,VALID,131,VALID,1.03058,
1999-11-06, 04:01:00,VALID,0,VALID,100,VALID,-0.0679233,VALID,19.247,VALID,148,VALID,0.973524,
1999-11-06, 04:02:00,VALID,0,VALID,100,VALID,-0.0339617,VALID,19.2339,VALID,110,VALID,1.40536,
1999-11-06, 04:03:00,VALID,0,VALID,100,VALID,-0.0509425,VALID,19.2373,VALID,131,VALID,0.622796,
1999-11-06, 04:04:00,VALID,0,VALID,100,VALID,-0.0169808,VALID,19.2373,VALID,86,VALID,0.694866,
1999-11-06, 04:05:00,VALID,0,VALID,100,VALID,-0.0339617,VALID,19.2237,VALID,44,VALID,0.895399,
1999-11-06, 04:06:00,VALID,0,VALID,100,VALID,-0.0169808,VALID,19.2269,VALID,162,VALID,0.714509,
1999-11-06, 04:07:00,VALID,0,VALID,100,VALID,-0.0509425,VALID,19.2202,VALID,149,VALID,1.02003,
1999-11-06, 04:08:00,VALID,0,VALID,100,VALID,-0.0509425,VALID,19.2304,VALID,200,VALID,0.824777,
1999-11-06, 04:09:00,VALID,0,VALID,100,VALID,-0.0169808,VALID,19.2436,VALID,330,VALID,0.874132,
1999-11-06, 04:10:00,VALID,0,VALID,100,VALID,-0.0679233,VALID,19.2468,VALID,201,VALID,0.976786,
1999-11-06, 04:11:00,VALID,0,VALID,100,VALID,-0.0169808,VALID,19.2267,VALID,158,VALID,0.885216,
1999-11-06, 04:12:00,VALID,0,VALID,100,VALID,-0.0169808,VALID,19.2398,VALID,168,VALID,0.866295,